Find Kosmos-827

NORAD ID: 8891 Int'l Des: 1976-054 Owner: GUKOSR Country: SU operational
LEOCIRCULAR

实时位置

正在加载3D地球...

关于 Kosmos-827

正在加载描述...

即将过境

Passes for default location (London). Set your location on the main map for personalized predictions.

高度历史

Loading altitude history...

两行轨道根数

1 8891U 76054C 26120.48783170 -.00000002 00000-0 91939-4 0 9995
2 8891 74.0011 197.6212 0048926 350.8227 20.3670 12.53308745699577
Epoch: Apr 30, 2026 • Age: 5 hours

当前状态

高度 1468.9 km
速度 7.13 km/s
星下点 -73.81°S, 5.37°E
类型 other

Most Searched